Tracking 19242 objects as of 16-Aug-2018
HD Live streaming from Space Station
objects crossing your sky now

GORIZONT 6

Track GORIZONT 6 now!
GORIZONT 6 is classified as:


NORAD ID: 13624
Int'l Code: 1982-103A
Perigee: 35,794.7 km
Apogee: 35,813.6 km
Inclination: 13.0 °
Period: 1,436.6 minutes
Semi major axis: 42175 km
RCS: 3.1622 m2 (large)
Launch date: October 20, 1982
Source: Commonwealth of Independent States (former USSR) (CIS)
Launch site: TYURATAM MISSILE AND SPACE COMPLEX (TTMTR)
aabbcc
Your satellite tracking list
Your tracking list is empty




NASA's NSSDC Master Catalog

Two Line Element Set (TLE):
1 13624U 82103A   18227.49401138 +.00000078 +00000-0 +00000-0 0  9995
2 13624 013.0188 329.2080 0002238 290.5109 076.4827 01.00234569092245
Source of the keplerian elements: AFSPC